Weather reports worldwide

Advertisment
Sheffield, United Kingdom (99107): temperature & dewpoint: 11.11.2018 03:00:00 - 17.11.2018 03:00:00 (GMT)Sheffield, United Kingdom (99107): sunshine duration: 11.11.2018 03:00:00 - 17.11.2018 03:00:00 (GMT)Sheffield, United Kingdom (99107): precipitation: 11.11.2018 03:00:00 - 17.11.2018 03:00:00 (GMT)
Date & Time tt [°C] td [°C] sd [min] rr [mm]
17.11.2018 03:00:00 - - - -
17.11.2018 02:00:00 - - - -
17.11.2018 01:00:00 - - - -
17.11.2018 00:00:00 7,9 7,6 - 0,0
16.11.2018 23:00:00 8,5 8,2 - 0,0
16.11.2018 22:00:00 9,2 8,6 - 0,0
16.11.2018 21:00:00 - - - -
16.11.2018 20:00:00 - - - -
16.11.2018 19:00:00 10,6 9,7 - 0,0
16.11.2018 18:00:00 10,7 9,8 - 0,0
16.11.2018 17:00:00 10,8 9,8 - 0,0
16.11.2018 16:00:00 - - - -
16.11.2018 15:00:00 - - - -
16.11.2018 14:00:00 - - - -
16.11.2018 13:00:00 12,4 10,1 0 0,0
16.11.2018 12:00:00 12,2 10,2 - 0,0
16.11.2018 11:00:00 12,1 10,4 - 0,0
16.11.2018 10:00:00 11,9 10,7 0 0,0
16.11.2018 09:00:00 11,8 11,1 - 0,0
16.11.2018 08:00:00 11,7 11,2 0 0,0
16.11.2018 07:00:00 11,7 11,2 0 0,0
16.11.2018 06:00:00 11,7 11,3 0 0,0
16.11.2018 05:00:00 11,7 11,3 0 0,0
16.11.2018 04:00:00 11,8 11,3 - 0,0
16.11.2018 03:00:00 11,9 11,3 - 0,0
16.11.2018 02:00:00 12,0 11,1 0 0,0
16.11.2018 01:00:00 12,0 11,2 0 0,0
16.11.2018 00:00:00 12,2 11,4 - 0,0
15.11.2018 23:00:00 12,2 11,2 0 0,0
15.11.2018 22:00:00 12,6 11,1 0 0,0
15.11.2018 21:00:00 12,7 11,0 0 0,0
15.11.2018 20:00:00 12,4 10,9 0 0,0
15.11.2018 19:00:00 10,4 9,1 0 0,0
15.11.2018 18:00:00 9,3 8,1 0 0,0
15.11.2018 17:00:00 9,7 7,7 0 0,0
15.11.2018 16:00:00 11,4 8,4 18 0,0
15.11.2018 15:00:00 11,6 8,5 60 0,0
15.11.2018 14:00:00 11,8 8,8 24 0,0
15.11.2018 13:00:00 11,7 8,6 0 0,0
15.11.2018 12:00:00 11,8 8,5 54 0,0
15.11.2018 11:00:00 11,6 8,7 - 0,0
15.11.2018 10:00:00 10,2 8,4 60 0,0
15.11.2018 09:00:00 8,7 7,4 24 0,2
15.11.2018 08:00:00 7,8 6,7 0 0,0
15.11.2018 07:00:00 7,4 6,4 0 0,0
15.11.2018 06:00:00 7,5 6,1 0 0,0
15.11.2018 05:00:00 8,2 6,6 0 0,0
15.11.2018 04:00:00 8,4 6,9 0 0,0
15.11.2018 03:00:00 7,2 6,3 - 0,0
15.11.2018 02:00:00 7,2 5,7 - 0,0
15.11.2018 01:00:00 8,1 6,2 - 0,0
15.11.2018 00:00:00 8,3 6,3 - 0,0
14.11.2018 23:00:00 9,0 6,6 0 0,0
14.11.2018 22:00:00 9,5 6,8 0 0,0
14.11.2018 21:00:00 10,0 7,3 0 0,0
14.11.2018 20:00:00 10,4 7,5 0 0,0
14.11.2018 19:00:00 10,5 7,6 0 0,0
14.11.2018 18:00:00 10,7 7,4 0 0,0
14.11.2018 17:00:00 11,3 7,2 0 0,0
14.11.2018 16:00:00 12,1 7,5 0 0,0
14.11.2018 15:00:00 12,8 8,0 18 0,0
14.11.2018 14:00:00 13,9 8,4 - 0,0
14.11.2018 13:00:00 13,1 8,5 24 0,0
14.11.2018 12:00:00 13,1 8,9 6 0,0
14.11.2018 11:00:00 12,3 8,7 0 0,0
14.11.2018 10:00:00 11,9 8,8 6 0,0
14.11.2018 09:00:00 11,5 8,5 0 0,0
14.11.2018 08:00:00 11,0 8,3 0 0,0
14.11.2018 07:00:00 10,6 8,3 0 0,2
14.11.2018 06:00:00 10,2 8,4 0 0,4
14.11.2018 05:00:00 10,2 8,5 0 0,6
14.11.2018 04:00:00 9,9 8,6 0 1,0
14.11.2018 03:00:00 9,9 8,2 0 0,2
14.11.2018 02:00:00 10,3 7,9 0 0,0
14.11.2018 01:00:00 9,4 7,5 0 0,0
14.11.2018 00:00:00 9,4 7,1 - 0,0
13.11.2018 23:00:00 9,8 7,2 0 0,0
13.11.2018 22:00:00 10,1 7,2 0 0,0
13.11.2018 21:00:00 10,1 7,1 0 0,0
13.11.2018 20:00:00 10,0 6,8 0 0,0
13.11.2018 19:00:00 10,2 6,6 0 0,0
13.11.2018 18:00:00 10,3 6,3 0 0,0
13.11.2018 17:00:00 10,4 6,3 0 0,0
13.11.2018 16:00:00 11,0 6,3 0 0,0
13.11.2018 15:00:00 11,9 5,2 54 0,0
13.11.2018 14:00:00 12,4 5,4 60 0,0
13.11.2018 13:00:00 11,7 5,6 48 0,0
13.11.2018 12:00:00 11,1 5,8 60 0,0
13.11.2018 11:00:00 10,7 5,9 60 0,0
13.11.2018 10:00:00 10,1 5,9 60 0,0
13.11.2018 09:00:00 9,6 5,9 18 0,0
13.11.2018 08:00:00 8,8 5,6 0 0,0
13.11.2018 07:00:00 8,7 5,5 0 0,0
13.11.2018 06:00:00 8,7 6,0 0 0,0
13.11.2018 05:00:00 8,7 6,2 0 0,2
13.11.2018 04:00:00 8,4 6,0 0 0,0
13.11.2018 03:00:00 8,0 5,7 0 0,0
13.11.2018 02:00:00 8,0 5,6 0 0,0
13.11.2018 01:00:00 7,7 5,2 0 0,0
13.11.2018 00:00:00 7,8 5,4 - 0,0
12.11.2018 23:00:00 8,2 5,4 0 0,0
12.11.2018 22:00:00 8,8 6,6 0 0,0
12.11.2018 21:00:00 8,7 6,8 0 0,0
12.11.2018 20:00:00 8,9 7,0 0 0,0
12.11.2018 19:00:00 8,0 7,0 0 0,4
12.11.2018 18:00:00 7,8 6,4 0 0,2
12.11.2018 17:00:00 9,0 7,0 0 0,8
12.11.2018 16:00:00 10,1 6,6 0 0,2
12.11.2018 15:00:00 12,3 6,7 48 0,0
12.11.2018 14:00:00 12,6 6,7 42 0,0
12.11.2018 13:00:00 12,1 7,4 12 0,0
12.11.2018 12:00:00 11,5 7,7 24 0,0
12.11.2018 11:00:00 10,5 7,6 24 0,0
12.11.2018 10:00:00 9,7 7,5 36 0,0
12.11.2018 09:00:00 8,9 7,1 18 0,0
12.11.2018 08:00:00 8,2 7,0 0 0,0
12.11.2018 07:00:00 7,7 6,6 0 0,0
12.11.2018 06:00:00 7,9 6,6 0 0,0
12.11.2018 05:00:00 8,1 6,8 0 0,0
12.11.2018 04:00:00 8,0 6,7 0 0,0
12.11.2018 03:00:00 7,7 6,7 0 0,0
12.11.2018 02:00:00 7,1 6,2 0 0,0
12.11.2018 01:00:00 6,9 5,7 0 0,0
12.11.2018 00:00:00 6,6 5,3 - 0,0
11.11.2018 23:00:00 7,0 5,4 0 0,0
11.11.2018 22:00:00 7,5 5,4 0 0,0
11.11.2018 21:00:00 7,5 5,4 0 0,0
11.11.2018 20:00:00 7,7 5,8 0 0,0
11.11.2018 19:00:00 7,6 5,8 0 0,0
11.11.2018 18:00:00 7,7 5,5 0 0,0
11.11.2018 17:00:00 8,8 5,5 0 0,0
11.11.2018 16:00:00 10,1 5,4 18 0,0
11.11.2018 15:00:00 10,9 5,5 42 0,0
11.11.2018 14:00:00 10,9 6,2 42 0,0
11.11.2018 13:00:00 10,4 6,3 60 0,0
11.11.2018 12:00:00 9,8 6,8 12 0,2
11.11.2018 11:00:00 9,3 8,2 0 0,4
11.11.2018 10:00:00 8,9 7,4 0 0,0
11.11.2018 09:00:00 8,1 7,4 0 0,0
11.11.2018 08:00:00 7,8 6,8 0 0,0
11.11.2018 07:00:00 8,0 6,4 0 0,0
11.11.2018 06:00:00 8,2 6,4 0 0,0
11.11.2018 05:00:00 8,3 6,5 0 0,0
11.11.2018 04:00:00 8,5 6,9 0 0,0
11.11.2018 03:00:00 8,8 7,3 0 0,0

tt = temperature
td = dewpoint
sd = sunshine duration
rr = precipitation

Next stations